Regional Weather Roundup
Issued by NWS Burlington, VT

Current Version | Previous Version | Text Only | Print | Product List | Glossary Off
Versions: 1 2 3 4 5 6 7 8 9 10 11 12 13 14 15 16 17 18 19 20 21 22 23 24 25 26 27 28 29 30 31 32 33 34 35 36 37 38 39 40 41 42 43 44 45 46 47 48 49 50

000
ASUS41 KBTV 200230
RWRBTV
VERMONT REGIONAL WEATHER ROUNDUP
NATIONAL WEATHER SERVICE BURLINGTON VT
1000 PM EDT TUE AUG 19 2014

NOTE: "FAIR" INDICATES FEW OR NO CLOUDS BELOW 12,000 FEET WITH NO
SIGNIFICANT WEATHER AND/OR OBSTRUCTIONS TO VISIBILITY.

* THESE REPORTS ARE NOT UNDER NWS QUALITY CONTROL AND/OR DO NOT
  REPORT WEATHER SUCH AS PRECIPITATION AND FOG.

VTZ001>019-200300-
_____VERMONT_____


CITY           SKY/WX    TMP DP  RH WIND       PRES   REMARKS
BURLINGTON     CLEAR     62  56  80 E3        29.94R
MONTPELIER     CLEAR     53  50  89 CALM      30.00R
MORRISVILLE    CLEAR     55  53  93 CALM      29.97S
ST. JOHNSBURY*   N/A     58  55  90 MISG      29.94S
MIDDLEBURY*    FAIR      59  58  98 CALM      29.94S
RUTLAND*       CLEAR     57  52  82 SE8       29.95S
SPRINGFIELD    CLEAR     58  55  90 CALM      29.96R
HIGHGATE*      FAIR      56  55  95 E3        29.94S
NEWPORT*       FAIR      53  52  95 SW5       29.97S
BENNINGTON     CLEAR     55  51  86 CALM      29.94S
SUTTON*          N/A     55 N/A N/A MISG        N/A
GALLUP MILLS*    N/A      0 N/A N/A MISG        N/A
UNION VILLAGE*   N/A     57 N/A N/A MISG        N/A
MT. MANSFIELD*   N/A     50 N/A N/A SE3         N/A

_____LAKE CHAMPLAIN_____


CITY           SKY/WX    TMP DP  RH WIND       PRES   REMARKS
BURTON ISLAND*   N/A     64  61  88 E1          N/A
COLCHESTER RF*   N/A     66  59  77 NW8         N/A
DIAMOND ISL*     N/A     64  59  82 S1          N/A

$$

NYZ007-026>031-035-052-083-200300-
_____NORTHERN NEW YORK_____


CITY           SKY/WX    TMP DP  RH WIND       PRES   REMARKS
PLATTSBURGH    CLEAR     58  55  90 CALM      29.93S
SARANAC LAKE   CLEAR     52  49  89 NE3       29.95R
MASSENA        CLEAR     61  55  81 NE3       29.92S
OGDENSBURG*    CLEAR     55  54  94 CALM      29.91S
PARISHVILLE*     N/A     63 N/A N/A E2          N/A
WATERTOWN      CLEAR     63  54  72 NE5       29.89R
FT DRUM        PTCLDY    65  54  65 E7        29.90S
ALBANY         MOCLDY    65  53  65 CALM      29.92S
GLENS FALLS    CLEAR     57  53  86 CALM      29.93R

$$
NHZ002-005-011-200300-
_____NEW HAMPSHIRE_____


CITY           SKY/WX    TMP DP  RH WIND       PRES   REMARKS
LEBANON        CLEAR     56  52  86 CALM      29.94S
KEENE          CLEAR     57  48  72 CALM      29.96S
MT WASHINGTON  PTCLDY    48  37  66 SW7         N/A
PLYMOUTH       FAIR      55  55 100 CALM      29.96R
WHITEFIELD     CLEAR     55  52  89 CALM      29.97R

$$

_____REGIONAL QUEBEC LOCATIONS_____


CITY           SKY/WX    TMP DP  RH WIND       PRES   REMARKS
MONTREAL       PTCLDY    68  54  60 SE6       29.93S
QUEBEC CITY    PTCLDY    64  57  77 W10       29.93S
SHERBROOKE     CLEAR     57  55  94 E2        29.96S

_____REGIONAL ONTARIO LOCATIONS_____


CITY           SKY/WX    TMP DP  RH WIND       PRES   REMARKS
OTTAWA         PTCLDY    63  55  77 E7        29.92F

______KEY______
VSB  - VISIBILITY IN MILES
WCI  - WIND CHILL INDEX
HX   - HEAT INDEX
$$
NNNN


USA.gov is the U.S. government's official web portal to all federal, state and local government web resources and services.